Regional Weather Roundup
Issued by NWS

Home | Current Version | Previous Version | Graphics & Text | Print | Product List | Glossary On
Versions: 1 2 3 4 5 6 7 8 9 10 11 12 13 14 15 16 17 18 19 20 21 22 23 24 25 26 27 28 29 30 31 32 33 34 35 36 37 38 39 40 41 42 43 44 45 46 47 48 49 50
000
ASUS43 KMPX 290410
RWRMN
WEATHER ROUNDUP FOR MINNESOTA
NATIONAL WEATHER SERVICE TWIN CITIES/CHANHASSEN MN
1000 PM CST SUN DEC 28 2014


NOTE: "FAIR" INDICATES FEW OR NO CLOUDS BELOW 12,000 FEET WITH NO
SIGNIFICANT WEATHER AND/OR OBSTRUCTIONS TO VISIBILITY. N/A MEANS
CURRENT SKY AND/OR WEATHER CONDITIONS ARE NOT AVAILABLE.

MNZ060>063-068>070-290500-
   Twin Cities Metro

CITY           SKY/WX    TMP DP  RH WIND       PRES   REMARKS
TWIN CITIES    PTCLDY    12   1  61 N8        30.33R WCI   0
ST PAUL        PTCLDY    11   1  64 VRB3      30.35R
CRYSTAL        PTCLDY    11   1  64 N6        30.33R WCI   1
BLAINE         PTCLDY     9   1  72 N6        30.32R WCI  -1
LAKEVILLE      MOCLDY     9   5  85 CALM      30.31R
EDEN PRAIRIE   PTCLDY    12   2  64 N6        30.32R WCI   3
SOUTH ST PAUL  PTCLDY    14   1  57 CALM      30.33R
LAKE ELMO      FAIR      10   3  72 N3        30.33R
$$
MNZ001>005-007-008-013>017-022>024-027-028-290500-
   Northwest Minnesota

CITY           SKY/WX    TMP DP  RH WIND       PRES   REMARKS
BEMIDJI        CLEAR     -7 -11  83 NW5       30.36R WCI -19
HALLOCK        PTCLDY    -9 -15  77 N10       30.49R WCI -28
ROSEAU         PTCLDY    -9 -17  70 NW5       30.44R WCI -21
WARROAD        PTCLDY   -11 -17  77 NW6       30.43R WCI -25
THIEF RVR FALL PTCLDY    -8  -9  92 N9        30.43R WCI -25
CROOKSTON      CLEAR     -8 -13  77 N5        30.49R WCI -19
FOSSTON        CLEAR    -11 -15  84 NW6       30.40R WCI -25
DETROIT LAKES  FAIR      -2  -6  84 NW9       30.38R WCI -18
MOORHEAD       CLEAR     -2  -6  84 N13       30.46R WCI -21
PARK RAPIDS    CLEAR     -2  -8  76 NW7       30.34R WCI -15
MAHNOMEN       FAIR      -7 -11  81 N6        30.40R WCI -20
$$
MNZ006-009>011-018-025>026-290500-
   North Central Minnesota

CITY           SKY/WX    TMP DP  RH WIND       PRES   REMARKS
BAUDETTE       PTCLDY    -8 -14  74 NW8       30.39R WCI -24
FLAG ISLAND    CLEAR    -11 -18  70 NW18      30.41R WCI -36
INTL FALLS     CLEAR     -9 -14  78 W6        30.36R WCI -22
WASKISH        CLEAR     -6  -9  84 NW8       30.38R WCI -21
BIG FORK       CLEAR     -6 -11  77 CALM      30.34S
LONGVILLE      CLEAR      0  -6  78 CALM      30.34R
GRAND RAPIDS   CLEAR      0  -6  78 N12       30.30R WCI -18
CRANE LAKE     CLEAR     -8 -11  84 CALM      30.37R
ORR            CLEAR     -6 -13  71 NW6       30.30R WCI -18
COOK           CLEAR     -6 -11  77 NW3       30.33R
WALKER         FAIR      -4  -8  79 NW3       30.35R
$$
MNZ012-019>021-037-290500-
   Northeast Minnesota

CITY           SKY/WX    TMP DP  RH WIND       PRES   REMARKS
DULUTH         CLEAR      2  -7  66 NW12      30.27R WCI -15
ELY            CLEAR     -6 -11  77 W5        30.29R WCI -17
HIBBING        CLEAR     -1 -10  65 NW13      30.31R WCI -19
EVELETH        CLEAR      0  -8  71 NW8       30.31R WCI -15
DULUTH HARBOR  CLEAR      9  -4  56 NW9       30.37R WCI  -5
TWO HARBORS    CLEAR      5  -6  61 CALM      30.27R
SILVER BAY     CLEAR      3  -8  60 NW3       30.27R
GRAND MARAIS     N/A      2  -6  69 VRB6      30.33R WCI  -9
G MARAIS ARPRT PTCLDY    -8 -13  77 NW13G21   30.16R WCI -28
$$
MNZ029>031-032-039>041-046>048-054>057-064-290500-
   West Central Minnesota

CITY           SKY/WX    TMP DP  RH WIND       PRES   REMARKS
FERGUS FALLS   MOCLDY     1  -6  71 N8        30.43R WCI -12
WHEATON        MOCLDY     1  -4  78 NW12G17   30.42R WCI -15
MORRIS         MOCLDY     9   3  78 N8        30.35R WCI  -4
ALEXANDRIA     PTCLDY     9   0  67 N12       30.33R WCI  -6
ELBOW LAKE     FAIR       5  -1  76 N6        30.36R WCI  -5
WADENA         CLEAR      1  -4  78 N10       30.34R WCI -14
GLENWOOD       PTCLDY     7   1  78 N5        30.33R WCI  -2
APPLETON       CLOUDY    12   7  79 N10       30.36R WCI  -1
BENSON         CLOUDY    10   3  72 NE7       30.34R WCI   0
ORTONVILLE     CLOUDY     7   0  72 N14       30.36R WCI -10
MADISON        MOCLDY    12   9  85 N10       30.36R WCI  -1
WILLMAR        CLOUDY    14   3  62 NE10      30.33R WCI   1
$$
MNZ033>034-036-042>043-049>051-058-059-290500-
   Central Minnesota

CITY           SKY/WX    TMP DP  RH WIND       PRES   REMARKS
ST CLOUD       CLEAR     11   0  61 N6        30.34R WCI   1
SAUK CENTRE    FAIR       7   0  71 CALM      30.34R
PAYNESVILLE    PTCLDY     7   1  74 N7        30.33S WCI  -4
AITKIN         CLEAR      5  -2  72 N7        30.32S WCI  -7
PINE RIVER     CLEAR      1  -4  78 NW7       30.37R WCI -11
BRAINERD       CLEAR      4  -3  73 N9        30.34R WCI -10
STAPLES        CLEAR      1  -4  78 N7        30.34R WCI -11
LONG PRAIRIE   FAIR       9   0  66 N6        30.33R WCI  -1
LITTLE FALLS   CLEAR      9   0  66 N3        30.34R
LITCHFIELD     PTCLDY    12   3  67 N6        30.32R WCI   3
BUFFALO        PTCLDY     9   1  70 N3        30.34R
MAPLE LAKE     PTCLDY    10   3  72 CALM      30.34R
$$
MNZ037-044-045-052-053-290500-
   East Central Minnesota

CITY           SKY/WX    TMP DP  RH WIND       PRES   REMARKS
PRINCETON      PTCLDY     9   0  66 CALM      30.33R
MORA           CLEAR      7  -2  66 VRB3      30.35R
CAMBRIDGE      PTCLDY    10   0  61 CALM      30.32R
RUSH CITY      PTCLDY     6  -2  70 N7        30.34R WCI  -6
MOOSE LAKE     CLEAR      3  -4  72 N5        30.31S WCI  -6
HINCKLEY       FAIR       9   0  66 CALM      30.33R
CLOQUET        FAIR       1  -6  71 NW9       30.30R WCI -14
MCGREGOR       CLEAR      5   0  78 N9        30.33R WCI  -9
$$
MNZ071>073-080-081-089-090-097-098-290500-
   Southwest Minnesota

CITY           SKY/WX    TMP DP  RH WIND       PRES   REMARKS
MONTEVIDEO     CLOUDY    12   9  85 N7        30.36R WCI   2
GRANITE FALLS  CLOUDY    13   8  79 NW6       30.35R WCI   4
CANBY          CLOUDY    10   5  82 NW9       30.36R WCI  -4
MARSHALL       CLOUDY    12   3  67 N12       30.32R WCI  -2
REDWOOD FALLS  CLOUDY    17   7  64 NE5       30.33R WCI  10
OLIVIA         CLOUDY    14   9  79 NE5       30.32R WCI   6
PIPESTONE      CLOUDY    12   9  85 NE12      30.26R WCI  -2
WINDOM         CLOUDY    19  18  93 CALM      30.28R
WORTHINGTON    CLOUDY    18 -27  12 N9        30.26R WCI   6
JACKSON        CLOUDY    19  18  93 N6        30.26S WCI  11
TRACY          CLOUDY    15  11  85 NW9       30.31R WCI   3
SLAYTON        CLOUDY    13  10  88 N10       30.28R WCI   0
$$
MNZ065>067-074>077-082>085-091>093-290500-
   South Central Minnesota

CITY           SKY/WX    TMP DP  RH WIND       PRES   REMARKS
MANKATO        CLOUDY    12   9  85 CALM      30.30R
NEW ULM        CLOUDY    16   7  67 NE3       30.32R
ST JAMES       CLOUDY    18  16  93 NW3       30.31R
FAIRMONT       CLOUDY    18  12  79 MISG      30.28R
GLENCOE        CLOUDY    13   4  68 N7        30.32R WCI   3
FARIBAULT      MOCLDY    12  10  92 N3        30.29R
OWATONNA       CLOUDY    10   9  92 NE8       30.27S WCI  -1
WASECA         CLOUDY    14  10  85 CALM      30.31R
ALBERT LEA     CLOUDY    16  12  86 NE5       30.26S WCI   9
$$
MNZ078>079-086>088-094>096-290500-
   Southeast Minnesota

CITY           SKY/WX    TMP DP  RH WIND       PRES   REMARKS
ROCHESTER      MOCLDY    13  10  88 N8        30.25S FOG     WCI   2
RED WING       PTCLDY    10   5  79 CALM      30.32R
STANTON        MOCLDY     9   6  86 CALM      30.30R FOG
DODGE CENTER   MOCLDY    12  10  92 NE7       30.25F WCI   2
WINONA         PTCLDY    12  10  92 CALM      30.32R
AUSTIN         CLOUDY    14  10  85 NE5       30.26R WCI   6
PRESTON        CLOUDY    13  11  91 NE3       30.26R
$$
ABBREVIATIONS USED IN REMARKS
   TC - TEMPERATURES IN CELSIUS
  WCI - WIND CHILL INDEX
   HX - HEAT INDEX
  VSB - VISIBILITY
$$



USA.gov is the U.S. government's official web portal to all federal, state and local government web resources and services.